GW6793 Weather Reports


time (UTC)temp
C
wind
direction
speed
KPH
gust
KPH
rain 1hr
cm
rain 24hr
cm
rain mn
cm
humidity
%
barometer
mb
20260502151501 17 15 6.4 16.1 0.00 4.11 0.00 72 1021.1
20260502151000 16 13 6.4 16.1 0.00 4.11 0.00 74 1021.0
20260502150500 16 28 8.0 19.3 0.00 4.11 0.00 74 1021.0
20260502130500 11 25 6.4 17.7 0.00 5.41 0.00 93 1019.8
20260502123500 10 12 4.8 8.0 0.00 5.77 0.00 94 1019.4
20260502122959 10 20 3.2 9.7 0.00 5.77 0.00 94 1019.5
20260502122500 10 17 3.2 8.0 0.00 5.77 0.00 94 1019.4
20260502121959 10 13 3.2 8.0 0.00 5.77 0.00 94 1019.3
20260502121500 10 11 3.2 6.4 0.00 5.77 0.00 94 1019.2
20260502121001 10 11 3.2 6.4 0.00 5.77 0.00 94 1019.2
20260502120500 10 11 3.2 8.0 0.00 5.77 0.00 94 1019.1
20260502115457 10 20 3.2 6.4 0.00 6.02 0.00 94 1018.9
20260502114958 10 20 3.2 6.4 0.00 6.02 0.00 94 1018.8
20260502114458 10 21 3.2 6.4 0.00 6.02 0.00 94 1018.7
20260502114005 10 21 3.2 6.4 0.00 6.02 0.00 94 1018.8
20260502113524 10 21 3.2 6.4 0.00 6.02 0.00 94 1018.8
20260502112959 10 21 3.2 6.4 0.00 6.02 0.00 94 1018.7
20260502112458 10 21 3.2 6.4 0.00 6.02 0.00 94 1018.6
20260502111958 10 21 3.2 4.8 0.00 6.02 0.00 94 1018.5
20260502111459 10 21 3.2 4.8 0.00 6.02 0.00 93 1018.5
20260502110959 10 21 3.2 4.8 0.00 6.02 0.00 93 1018.5
20260502110003 10 21 1.6 3.2 0.00 6.02 0.00 93 1018.3
20260502105459 10 21 1.6 3.2 0.00 6.55 0.00 94 1018.3
20260502104500 10 21 1.6 4.8 0.00 6.55 0.00 93 1018.1
20260502104000 10 21 1.6 4.8 0.00 6.55 0.00 93 1017.9
20260502103500 10 21 1.6 6.4 0.00 6.55 0.00 93 1017.8
20260502103000 10 21 1.6 4.8 0.00 6.55 0.00 93 1017.7
20260502102459 10 21 1.6 3.2 0.00 6.55 0.00 93 1017.7
20260502101959 10 21 1.6 6.4 0.00 6.55 0.00 93 1017.7
20260502101459 10 21 3.2 6.4 0.00 6.55 0.00 93 1017.6
20260502101000 10 16 3.2 8.0 0.00 6.55 0.00 93 1017.6
20260502091458 11 17 3.2 12.9 0.00 7.37 0.00 93 1016.6
20260502090458 11 12 3.2 8.0 0.00 7.37 0.00 93 1016.5
20260502071458 11 19 3.2 12.9 0.00 9.02 0.00 93 1016.1
20260502070959 11 29 3.2 8.0 0.00 9.02 0.00 93 1016.1
20260502070457 11 26 3.2 8.0 0.00 9.02 0.00 93 1016.1
20260502065457 11 345 4.8 14.5 0.00 9.12 0.00 93 1016.2
20260502064957 11 360 4.8 14.5 0.00 9.12 0.00 93 1016.2
20260502063958 11 13 6.4 17.7 0.00 9.12 0.00 92 1016.3
20260502063457 11 9 6.4 16.1 0.00 9.12 0.00 93 1016.2
20260502063000 11 22 6.4 16.1 0.00 9.12 0.00 93 1016.2
20260502062458 12 28 8.0 20.9 0.00 9.12 0.00 92 1016.2
20260502061958 12 29 8.0 20.9 0.00 9.12 0.00 92 1016.3
20260502060457 12 17 8.0 17.7 0.00 9.12 0.00 93 1016.1
20260502055504 12 15 6.4 17.7 0.00 9.12 0.00 93 1016.4
20260502055005 12 355 8.0 17.7 0.00 9.12 0.00 93 1016.4
20260502054005 12 12 8.0 14.5 0.00 9.12 0.00 93 1016.4
20260502053504 12 17 8.0 17.7 0.00 9.12 0.00 93 1016.4
20260502053004 12 350 6.4 17.7 0.00 9.12 0.00 93 1016.4
20260502052504 12 351 6.4 12.9 0.00 9.12 0.00 93 1016.4
20260502052005 12 13 8.0 24.1 0.00 9.12 0.00 93 1016.3
20260502051504 12 349 8.0 20.9 0.00 9.12 0.00 93 1016.3
20260502051005 12 12 6.4 17.7 0.00 9.12 0.00 93 1016.3
20260502050504 12 355 8.0 17.7 0.00 9.12 0.00 93 1016.2
20260502050012 12 350 9.7 19.3 0.00 9.12 0.00 93 1016.2
20260502045505 12 21 8.0 24.1 0.00 9.47 9.12 93 1016.0
20260502045005 12 5 8.0 17.7 0.00 9.47 9.12 94 1016.0
20260502044505 12 360 9.7 17.7 0.00 9.47 9.12 94 1015.9
20260502044006 12 344 8.0 17.7 0.00 9.47 9.12 94 1016.0
20260502043506 12 342 8.0 19.3 0.00 9.47 9.12 94 1015.8
20260502043005 12 56 8.0 19.3 0.00 9.47 9.12 94 1015.7
20260502042504 12 26 8.0 19.3 0.00 9.47 9.12 94 1015.6
20260502042005 12 36 9.7 19.3 0.00 9.47 9.12 94 1015.6
20260502041506 12 322 9.7 19.3 0.00 9.47 9.12 94 1015.7
20260502041005 12 355 9.7 17.7 0.00 9.47 9.12 94 1015.6
20260502040008 12 360 9.7 24.1 0.00 9.47 9.12 94 1015.6
20260502035505 12 343 9.7 24.1 0.00 9.50 9.12 94 1015.4
20260502035008 12 17 9.7 20.9 0.00 9.50 9.12 94 1015.5
20260502034504 12 355 8.0 20.9 0.00 9.50 9.12 94 1015.4
20260502034005 12 49 8.0 20.9 0.00 9.50 9.12 94 1015.5
20260502033504 12 24 8.0 20.9 0.00 9.50 9.12 94 1015.5
20260502032505 12 9 8.0 19.3 0.00 9.50 9.12 94 1015.6
20260502032005 12 344 9.7 24.1 0.00 9.50 9.12 94 1015.5
20260502031505 12 31 9.7 24.1 0.00 9.50 9.12 94 1015.4
20260502030006 12 331 11.3 29.0 0.00 9.50 9.12 95 1015.0
20260502025505 13 34 9.7 29.0 0.00 9.50 9.12 95 1014.9
20260502024504 13 350 8.0 29.0 0.00 9.50 9.12 95 1014.9
20260502024004 13 355 6.4 22.5 0.00 9.50 9.12 95 1014.9
20260502023504 13 22 8.0 16.1 0.00 9.50 9.12 95 1014.8
20260502023003 13 355 8.0 16.1 0.00 9.50 9.12 95 1014.7
20260502022506 13 360 9.7 19.3 0.00 9.50 9.12 95 1014.6
20260502022004 13 360 9.7 25.7 0.00 9.50 9.12 95 1014.5
20260502021505 13 342 8.0 25.7 0.00 9.50 9.12 95 1014.3
20260502021005 13 346 8.0 16.1 0.00 9.50 9.12 95 1014.1
20260502020505 13 355 8.0 19.3 0.00 9.50 9.12 95 1013.9
20260502020008 13 15 8.0 19.3 0.00 9.50 9.12 95 1013.8
20260502015504 13 5 8.0 17.7 0.00 9.50 9.12 95 1013.7
20260502015004 13 9 6.4 17.7 0.00 9.50 9.12 95 1013.5
20260502014504 13 355 8.0 20.9 0.03 9.50 9.12 95 1013.1
20260502014005 13 360 9.7 20.9 0.03 9.50 9.12 95 1012.8
20260502013004 13 82 8.0 17.7 0.03 9.50 9.12 95 1012.9
20260502012504 13 5 6.4 14.5 0.03 9.50 9.12 95 1012.8
20260502012004 13 54 8.0 16.1 0.05 9.50 9.12 95 1012.8
20260502011005 13 360 9.7 22.5 0.10 9.50 9.12 95 1012.4
20260502010504 13 340 11.3 29.0 0.13 9.50 9.12 95 1012.3
20260502005504 13 5 11.3 27.4 0.15 9.50 9.12 95 1012.5
20260502005005 13 346 9.7 27.4 0.18 9.50 9.12 95 1012.4
20260502004504 14 32 9.7 24.1 0.20 9.47 9.09 95 1012.4
20260502004005 14 330 9.7 24.1 0.23 9.47 9.09 95 1012.4
20260502003504 14 5 8.0 20.9 0.25 9.47 9.09 95 1012.7
20260502002504 14 12 9.7 20.9 0.33 9.47 9.09 95 1012.5
20260502002003 14 30 8.0 22.5 0.36 9.45 9.07 96 1012.4
20260502001504 14 355 8.0 16.1 0.33 9.42 9.04 96 1012.4
20260502001004 14 355 8.0 19.3 0.36 9.40 9.02 96 1012.4
20260502000504 14 360 6.4 12.9 0.38 9.37 8.99 96 1012.7
20260502000006 14 9 6.4 17.7 0.41 9.37 8.99 96 1013.2
20260501235505 14 5 4.8 17.7 0.43 9.35 8.97 95 1013.0
20260501235003 14 331 6.4 14.5 0.43 9.32 8.94 95 1012.9
20260501234503 14 355 6.4 17.7 0.41 9.27 8.89 95 1012.6
20260501234004 14 31 6.4 14.5 0.43 9.25 8.86 95 1012.5
20260501233004 14 43 8.0 19.3 0.51 9.19 8.81 95 1012.0
20260501232504 14 340 6.4 16.1 0.69 9.14 8.76 95 1011.9
20260501232005 15 11 6.4 16.1 0.79 9.09 8.71 95 1012.0
20260501231505 15 340 8.0 17.7 0.81 9.09 8.71 95 1012.1
20260501231004 15 26 8.0 19.3 0.76 9.04 8.66 95 1012.2
20260501230504 15 351 9.7 19.3 0.71 8.99 8.61 95 1012.2
20260501225504 15 38 8.0 19.3 0.64 8.92 8.53 96 1011.9
20260501225003 15 355 8.0 16.1 0.61 8.89 8.51 95 1011.8
20260501224503 15 336 8.0 16.1 0.58 8.86 8.48 95 1011.6
20260501224003 15 5 8.0 16.1 0.53 8.81 8.43 95 1011.0
20260501223503 15 13 8.0 16.1 0.48 8.76 8.38 95 1011.1
20260501223004 15 335 8.0 19.3 0.41 8.69 8.31 95 1011.1
20260501222503 15 9 8.0 16.1 0.18 8.46 8.08 96 1010.7
20260501222004 15 360 8.0 14.5 0.03 8.31 7.92 95 1011.0
20260501221002 15 355 6.4 17.7 0.00 8.28 7.90 96 1009.4
20260501220502 15 36 8.0 17.7 0.00 8.28 7.90 96 1009.1
20260501220002 15 11 8.0 19.3 0.00 8.28 7.90 96 1009.2
20260501215502 15 23 8.0 20.9 0.00 8.28 7.90 96 1009.2
20260501215002 15 12 9.7 20.9 0.00 8.28 7.90 96 1009.4
20260501214502 15 355 8.0 20.9 0.00 8.28 7.90 96 1009.2
20260501214002 15 31 8.0 20.9 0.00 8.28 7.90 96 1009.3
20260501213502 15 360 8.0 22.5 0.00 8.28 7.90 96 1009.4
20260501213003 15 30 8.0 22.5 0.00 8.28 7.90 96 1009.4
20260501212502 15 55 6.4 22.5 0.00 8.28 7.90 96 1009.1
20260501212001 15 350 6.4 17.7 0.00 8.28 7.90 96 1008.9
20260501211501 15 355 8.0 20.9 0.03 8.28 7.90 96 1009.1
20260501210502 15 22 11.3 24.1 0.30 8.28 7.90 96 1009.4
20260501210003 15 350 9.7 19.3 0.43 8.28 7.90 96 1009.4
20260501205502 15 325 9.7 32.2 0.66 8.28 7.90 96 1009.5
20260501205002 15 360 11.3 32.2 0.81 8.28 7.90 96 1009.6
20260501204502 15 360 11.3 20.9 0.86 8.28 7.90 96 1009.8
20260501204002 15 22 9.7 24.1 0.89 8.28 7.90 96 1010.0
20260501203502 16 355 9.7 24.1 0.89 8.28 7.90 96 1010.0
20260501203002 16 351 9.7 17.7 0.91 8.28 7.90 96 1010.2
20260501202502 16 48 9.7 17.7 0.94 8.28 7.90 96 1009.9
20260501202002 16 19 9.7 20.9 0.97 8.28 7.90 96 1009.8
20260501201002 16 329 6.4 16.1 0.89 8.18 7.80 96 1010.0
20260501200501 16 360 3.2 16.1 0.71 7.98 7.59 96 1009.9
20260501200002 16 325 1.6 6.4 0.58 7.85 7.47 96 1010.9
20260501195004 16 321 4.8 9.7 0.23 7.47 7.09 96 1010.8
20260501194004 16 334 8.0 12.9 0.15 7.39 7.01 96 1010.0
20260501193502 16 41 8.0 19.3 0.15 7.39 7.01 96 1009.7
20260501193003 16 338 9.7 17.7 0.13 7.37 6.99 96 1009.4
20260501192502 16 339 11.3 20.9 0.10 7.34 6.96 96 1008.8
20260501192002 16 346 9.7 20.9 0.08 7.32 6.93 96 1008.9
20260501191501 16 343 6.4 16.1 0.05 7.29 6.91 96 1009.4
20260501191002 16 338 3.2 16.1 0.05 7.29 6.91 96 1008.8
20260501190502 16 106 4.8 14.5 0.03 7.26 6.88 96 1008.1
20260501190003 16 71 6.4 16.1 0.03 7.26 6.88 96 1008.2
20260501185502 16 355 6.4 16.1 0.03 7.24 6.86 96 1009.0
20260501184502 16 31 4.8 9.7 0.13 7.24 6.86 96 1009.3
20260501184002 16 355 4.8 9.7 0.18 7.24 6.86 96 1009.2
20260501183502 16 9 3.2 14.5 0.23 7.24 6.86 96 1009.0
20260501183002 16 33 3.2 9.7 0.23 7.24 6.86 96 1009.1
20260501182001 16 60 3.2 9.7 0.25 7.24 6.86 96 1008.8
20260501181001 16 45 3.2 9.7 0.30 7.24 6.86 96 1009.2
20260501180501 16 360 4.8 14.5 0.33 7.24 6.86 96 1008.9
20260501180002 16 24 6.4 14.5 0.36 7.24 6.86 96 1008.9
20260501175501 16 5 6.4 14.5 0.41 7.21 6.83 96 1008.9
20260501174500 16 40 4.8 14.5 0.36 7.11 6.73 96 1009.1
20260501174002 16 26 6.4 12.9 0.30 7.06 6.68 96 1009.6
20260501173502 16 22 4.8 17.7 0.28 7.01 6.63 96 1009.3
20260501173001 16 121 6.4 16.1 0.30 7.01 6.63 96 1009.7
20260501172501 16 331 6.4 22.5 0.33 6.99 6.60 96 1009.2
20260501172002 16 348 6.4 16.1 0.33 6.99 6.60 96 1008.6
20260501171502 15 5 6.4 20.9 0.33 6.96 6.58 96 1007.7
20260501170501 15 355 6.4 17.7 0.28 6.91 6.53 96 1008.4
20260501170001 15 135 6.4 24.1 0.28 6.88 6.50 96 1009.3
20260501165500 16 161 9.7 24.1 0.23 6.81 6.43 96 1009.1
20260501165000 16 5 9.7 19.3 0.20 6.76 6.38 96 1010.9
20260501164501 16 21 9.7 22.5 0.20 6.76 6.38 96 1011.6
20260501164001 16 9 11.3 22.5 0.25 6.76 6.38 96 1011.7
20260501163501 16 13 9.7 22.5 0.25 6.73 6.35 96 1010.9
20260501163000 16 13 8.0 22.5 0.36 6.71 6.32 96 1011.0
20260501162501 16 22 6.4 17.7 0.41 6.65 6.27 96 1011.3
20260501161501 16 332 9.7 20.9 0.74 6.63 6.25 96 1011.7
20260501161001 16 355 9.7 25.7 0.99 6.63 6.25 96 1010.7
20260501160501 16 347 8.0 25.7 1.12 6.63 6.25 96 1010.7
20260501160004 16 35 9.7 20.9 1.19 6.60 6.22 96 1011.0
20260501155502 16 30 8.0 20.9 1.35 6.58 6.20 96 1011.5
20260501155000 16 9 8.0 16.1 1.70 6.55 6.17 96 1011.6
20260501154000 16 5 8.0 19.3 1.83 6.50 6.12 96 1011.2